Time,TemperatureF,DewpointF,PressureIn,WindDirection,WindDirectionDegrees,WindSpeedMPH,WindSpeedGustMPH,Humidity,HourlyPrecipIn,Conditions,Clouds,dailyrainin,SoftwareType,DateUTC
2013-04-27 17:30:00,42.6,15.5,30.01,ENE,68,9.0,9.0,33,0.00,,,0.00,Weather View 32 v70,2013-04-28 01:30:00,
2013-04-27 17:35:00,42.8,15.6,30.01,NE,45,8.0,9.0,33,0.00,,,0.00,Weather View 32 v70,2013-04-28 01:35:00,
2013-04-27 17:40:00,42.4,15.3,30.01,NE,45,9.0,9.0,33,0.00,,,0.00,Weather View 32 v70,2013-04-28 01:40:00,
2013-04-27 17:45:00,42.6,15.5,30.03,SSE,158,10.0,10.0,33,0.00,,,0.00,Weather View 32 v70,2013-04-28 01:45:00,
2013-04-27 17:50:00,42.6,15.5,30.03,SE,135,9.0,10.0,33,0.00,,,0.00,Weather View 32 v70,2013-04-28 01:50:00,
2013-04-27 17:55:00,43.0,15.8,30.03,East,90,9.0,10.0,33,0.00,,,0.00,Weather View 32 v70,2013-04-28 01:55:00,
2013-04-27 18:00:00,42.6,15.5,30.03,WSW,248,9.0,10.0,33,0.00,,,0.00,Weather View 32 v70,2013-04-28 02:00:00,
2013-04-27 18:05:00,42.6,15.5,30.03,SE,135,11.0,11.0,33,0.00,,,0.00,Weather View 32 v70,2013-04-28 02:05:00,
2013-04-27 18:10:00,42.4,15.3,30.03,SE,135,10.0,11.0,33,0.00,,,0.00,Weather View 32 v70,2013-04-28 02:10:00,
2013-04-27 18:15:00,42.6,15.5,30.03,ESE,112,10.0,11.0,33,0.00,,,0.00,Weather View 32 v70,2013-04-28 02:15:00,
2013-04-27 18:20:00,42.4,15.3,30.03,SE,135,10.0,11.0,33,0.00,,,0.00,Weather View 32 v70,2013-04-28 02:20:00,
2013-04-27 18:25:00,42.3,15.2,30.03,SE,135,10.0,11.0,33,0.00,,,0.00,Weather View 32 v70,2013-04-28 02:25:00,
2013-04-27 18:30:00,42.3,15.2,30.03,SE,135,11.0,11.0,33,0.00,,,0.00,Weather View 32 v70,2013-04-28 02:30:00,
2013-04-27 18:35:00,42.3,15.2,30.03,North,0,11.0,11.0,33,0.00,,,0.00,Weather View 32 v70,2013-04-28 02:35:00,
2013-04-27 18:40:00,42.1,15.0,30.03,NNE,22,11.0,11.0,33,0.00,,,0.00,Weather View 32 v70,2013-04-28 02:40:00,
2013-04-27 18:45:00,42.3,14.5,30.04,NNE,22,10.0,11.0,32,0.00,,,0.00,Weather View 32 v70,2013-04-28 02:45:00,
2013-04-27 18:50:00,42.3,14.5,30.04,ESE,112,9.0,11.0,32,0.00,,,0.00,Weather View 32 v70,2013-04-28 02:50:00,
2013-04-27 18:55:00,42.1,13.6,30.04,NNE,22,9.0,11.0,31,0.00,,,0.00,Weather View 32 v70,2013-04-28 02:55:00,
2013-04-27 19:00:00,42.1,14.3,30.04,ENE,68,8.0,11.0,32,0.00,,,0.00,Weather View 32 v70,2013-04-28 03:00:00,
2013-04-27 19:05:00,42.1,13.6,30.05,ESE,112,9.0,11.0,31,0.00,,,0.00,Weather View 32 v70,2013-04-28 03:05:00,
2013-04-27 19:10:00,42.1,14.3,30.05,SSW,202,9.0,11.0,32,0.00,,,0.00,Weather View 32 v70,2013-04-28 03:10:00,
2013-04-27 19:15:00,41.9,13.4,30.05,ENE,68,11.0,11.0,31,0.00,,,0.00,Weather View 32 v70,2013-04-28 03:15:00,
2013-04-27 19:20:00,41.9,14.1,30.05,SE,135,12.0,12.0,32,0.00,,,0.00,Weather View 32 v70,2013-04-28 03:20:00,
2013-04-27 19:25:00,41.5,13.1,30.06,ESE,112,11.0,12.0,31,0.00,,,0.00,Weather View 32 v70,2013-04-28 03:25:00,
2013-04-27 19:30:00,41.5,13.1,30.06,East,90,9.0,12.0,31,0.00,,,0.00,Weather View 32 v70,2013-04-28 03:30:00,
2013-04-27 19:35:00,41.5,12.4,30.06,NNE,22,8.0,12.0,30,0.00,,,0.00,Weather View 32 v70,2013-04-28 03:35:00,
2013-04-27 19:40:00,41.4,12.2,30.06,ENE,68,8.0,12.0,30,0.00,,,0.00,Weather View 32 v70,2013-04-28 03:40:00,
2013-04-27 19:45:00,41.5,13.1,30.06,ESE,112,7.0,12.0,31,0.00,,,0.00,Weather View 32 v70,2013-04-28 03:45:00,
2013-04-27 19:50:00,41.5,13.1,30.06,SW,225,6.0,12.0,31,0.00,,,0.00,Weather View 32 v70,2013-04-28 03:50:00,
2013-04-27 19:55:00,41.2,12.8,30.06,WSW,248,9.0,12.0,31,0.00,,,0.00,Weather View 32 v70,2013-04-28 03:55:00,
2013-04-27 20:00:00,41.2,13.5,30.06,NE,45,10.0,12.0,32,0.00,,,0.00,Weather View 32 v70,2013-04-28 04:00:00,
2013-04-27 20:01:00,41.2,13.5,30.06,NE,45,10.0,12.0,32,0.00,,,0.00,Weather View 32 v70,2013-04-28 04:01:00,
2013-04-27 20:06:00,41.2,14.2,30.07,ENE,68,9.0,12.0,33,0.00,,,0.00,Weather View 32 v70,2013-04-28 04:06:00,
2013-04-27 20:11:00,41.2,14.2,30.07,East,90,8.0,12.0,33,0.00,,,0.00,Weather View 32 v70,2013-04-28 04:11:00,
2013-04-27 20:16:00,40.8,13.2,30.07,ENE,68,7.0,12.0,32,0.00,,,0.00,Weather View 32 v70,2013-04-28 04:16:00,
2013-04-27 20:21:00,40.8,13.2,30.07,NNE,22,6.0,12.0,32,0.00,,,0.00,Weather View 32 v70,2013-04-28 04:21:00,
2013-04-27 20:26:00,40.8,13.9,30.07,South,180,5.0,11.0,33,0.00,,,0.00,Weather View 32 v70,2013-04-28 04:26:00,
2013-04-27 20:31:00,40.5,14.9,30.07,SE,135,5.0,10.0,35,0.00,,,0.00,Weather View 32 v70,2013-04-28 04:31:00,
2013-04-27 20:36:00,40.1,13.9,30.07,NNE,22,6.0,10.0,34,0.00,,,0.00,Weather View 32 v70,2013-04-28 04:36:00,
2013-04-27 20:41:00,40.1,14.6,30.07,ENE,68,6.0,10.0,35,0.00,,,0.00,Weather View 32 v70,2013-04-28 04:41:00,
2013-04-27 20:46:00,39.9,14.4,30.07,ESE,112,6.0,10.0,35,0.00,,,0.00,Weather View 32 v70,2013-04-28 04:46:00,
2013-04-27 20:51:00,39.7,14.9,30.07,NE,45,6.0,10.0,36,0.00,,,0.00,Weather View 32 v70,2013-04-28 04:51:00,
2013-04-27 20:56:00,39.7,14.3,30.07,South,180,6.0,10.0,35,0.00,,,0.00,Weather View 32 v70,2013-04-28 04:56:00,
2013-04-27 21:01:00,39.4,14.6,30.07,ENE,68,7.0,10.0,36,0.00,,,0.00,Weather View 32 v70,2013-04-28 05:01:00,
2013-04-27 21:06:00,39.4,14.6,30.08,ENE,68,8.0,9.0,36,0.00,,,0.00,Weather View 32 v70,2013-04-28 05:06:00,
2013-04-27 21:11:00,39.4,14.0,30.08,NE,45,8.0,8.0,35,0.00,,,0.00,Weather View 32 v70,2013-04-28 05:11:00,
2013-04-27 21:16:00,39.2,14.5,30.08,ENE,68,7.0,8.0,36,0.00,,,0.00,Weather View 32 v70,2013-04-28 05:16:00,
2013-04-27 21:21:00,39.0,14.3,30.08,NE,45,5.0,8.0,36,0.00,,,0.00,Weather View 32 v70,2013-04-28 05:21:00,
2013-04-27 21:26:00,38.8,14.1,30.09,ENE,68,5.0,8.0,36,0.00,,,0.00,Weather View 32 v70,2013-04-28 05:26:00,
2013-04-27 21:31:00,38.7,13.3,30.09,NE,45,6.0,8.0,35,0.00,,,0.00,Weather View 32 v70,2013-04-28 05:31:00,
2013-04-27 21:36:00,38.5,13.2,30.09,NE,45,5.0,8.0,35,0.00,,,0.00,Weather View 32 v70,2013-04-28 05:36:00,
2013-04-27 21:41:00,37.8,13.2,30.09,ENE,68,4.0,8.0,36,0.00,,,0.00,Weather View 32 v70,2013-04-28 05:41:00,
2013-04-27 21:46:00,37.6,13.0,30.10,NE,45,3.0,8.0,36,0.00,,,0.00,Weather View 32 v70,2013-04-28 05:46:00,
2013-04-27 21:51:00,37.2,12.7,30.10,ENE,68,4.0,8.0,36,0.00,,,0.00,Weather View 32 v70,2013-04-28 05:51:00,
2013-04-27 21:56:00,36.9,13.0,30.10,ENE,68,4.0,8.0,37,0.00,,,0.00,Weather View 32 v70,2013-04-28 05:56:00,
2013-04-27 22:01:00,36.5,13.3,30.10,ENE,68,4.0,8.0,38,0.00,,,0.00,Weather View 32 v70,2013-04-28 06:01:00,
2013-04-27 22:06:00,36.3,12.5,30.10,ESE,112,5.0,8.0,37,0.00,,,0.00,Weather View 32 v70,2013-04-28 06:06:00,
2013-04-27 22:11:00,36.3,12.5,30.10,ENE,68,6.0,8.0,37,0.00,,,0.00,Weather View 32 v70,2013-04-28 06:11:00,
2013-04-27 22:16:00,36.0,12.8,30.10,ESE,112,6.0,7.0,38,0.00,,,0.00,Weather View 32 v70,2013-04-28 06:16:00,
2013-04-27 22:21:00,36.1,13.5,30.10,ENE,68,5.0,6.0,39,0.00,,,0.00,Weather View 32 v70,2013-04-28 06:21:00,
2013-04-27 22:26:00,35.6,12.5,30.08,ENE,68,5.0,6.0,38,0.00,,,0.00,Weather View 32 v70,2013-04-28 06:26:00,
2013-04-27 22:31:00,35.4,12.3,30.08,NE,45,4.0,6.0,38,0.00,,,0.00,Weather View 32 v70,2013-04-28 06:31:00,
2013-04-27 22:36:00,35.4,12.9,30.08,ENE,68,3.0,6.0,39,0.00,,,0.00,Weather View 32 v70,2013-04-28 06:36:00,
2013-04-27 22:41:00,34.9,12.4,30.08,NNE,22,3.0,6.0,39,0.00,,,0.00,Weather View 32 v70,2013-04-28 06:41:00,
2013-04-27 22:46:00,34.9,12.4,30.08,ENE,68,2.0,6.0,39,0.00,,,0.00,Weather View 32 v70,2013-04-28 06:46:00,
2013-04-27 22:51:00,34.3,12.5,30.08,ENE,68,1.0,6.0,40,0.00,,,0.00,Weather View 32 v70,2013-04-28 06:51:00,
2013-04-27 22:56:00,34.0,12.2,30.08,ENE,68,2.0,6.0,40,0.00,,,0.00,Weather View 32 v70,2013-04-28 06:56:00,
2013-04-27 23:01:00,33.8,12.0,30.08,ENE,68,2.0,6.0,40,0.00,,,0.00,Weather View 32 v70,2013-04-28 07:01:00,
2013-04-27 23:06:00,34.2,12.3,30.09,NE,45,2.0,6.0,40,0.00,,,0.00,Weather View 32 v70,2013-04-28 07:06:00,
2013-04-27 23:11:00,34.0,12.2,30.09,ENE,68,3.0,6.0,40,0.00,,,0.00,Weather View 32 v70,2013-04-28 07:11:00,
2013-04-27 23:16:00,33.8,12.0,30.09,NE,45,2.0,6.0,40,0.00,,,0.00,Weather View 32 v70,2013-04-28 07:16:00,
2013-04-27 23:21:00,33.6,11.8,30.09,NE,45,3.0,5.0,40,0.00,,,0.00,Weather View 32 v70,2013-04-28 07:21:00,
2013-04-27 23:26:00,34.0,12.2,30.09,NE,45,4.0,5.0,40,0.00,,,0.00,Weather View 32 v70,2013-04-28 07:26:00,
2013-04-27 23:31:00,33.8,12.0,30.09,NE,45,3.0,4.0,40,0.00,,,0.00,Weather View 32 v70,2013-04-28 07:31:00,
2013-04-27 23:36:00,34.0,11.6,30.09,NE,45,4.0,4.0,39,0.00,,,0.00,Weather View 32 v70,2013-04-28 07:36:00,
2013-04-27 23:41:00,33.6,11.8,30.09,NE,45,4.0,4.0,40,0.00,,,0.00,Weather View 32 v70,2013-04-28 07:41:00,
2013-04-27 23:46:00,33.6,11.8,30.09,ENE,68,4.0,4.0,40,0.00,,,0.00,Weather View 32 v70,2013-04-28 07:46:00,
2013-04-27 23:51:00,33.4,11.7,30.09,ESE,112,4.0,4.0,40,0.00,,,0.00,Weather View 32 v70,2013-04-28 07:51:00,
2013-04-27 23:56:00,33.6,11.3,30.09,East,90,4.0,4.0,39,0.00,,,0.00,Weather View 32 v70,2013-04-28 07:56:00,